DW8984 Weather Reports


time (UTC)temp
F
wind
direction
speed
knots
gust
knots
rain 1hr
in
rain 24hr
in
rain mn
in
humidity
%
barometer
mb
20260506073045 53 129 0.0 0.0 0.00 0.00 0.00 90 1018.8
20260506071539 52 129 0.0 0.0 0.00 0.00 0.00 91 1018.7
20260506061531 54 138 0.0 4.3 0.00 0.00 0.00 86 1018.2
20260506044549 56 132 0.0 4.3 0.00 0.00 0.00 83 1017.1
20260506043021 56 110 0.9 8.7 0.00 0.00 0.00 82 1017.1
20260506041520 56 136 0.0 6.1 0.00 0.00 0.00 81 1016.8
20260506040016 57 136 0.9 10.4 0.00 0.00 0.00 80 1016.7
20260506034532 57 125 0.0 5.2 0.00 0.00 0.00 79 1016.3
20260506033012 58 148 0.9 8.7 0.00 0.00 0.00 78 1016.1
20260506031512 59 124 2.6 7.8 0.00 0.00 0.00 76 1015.7
20260506030011 60 131 1.7 10.4 0.00 0.00 0.00 75 1015.4
20260506024510 61 126 0.9 6.1 0.00 0.00 0.00 74 1014.9
20260506023009 62 150 0.9 10.4 0.00 0.00 0.00 72 1014.7
20260506021509 63 150 0.0 6.1 0.00 0.00 0.00 71 1014.4
20260506020009 64 127 0.9 5.2 0.00 0.00 0.00 70 1014.1
20260506014506 66 95 0.0 11.3 0.00 0.00 0.00 65 1014.0
20260506013006 68 103 0.0 7.0 0.00 0.00 0.00 63 1014.0
20260506011510 69 158 1.7 7.0 0.00 0.00 0.00 62 1013.7
20260506010008 70 135 0.0 6.1 0.00 0.00 0.00 62 1013.6
20260506004504 71 174 0.0 3.5 0.00 0.00 0.00 60 1013.5
20260506003003 72 160 0.0 7.0 0.00 0.00 0.00 61 1013.2
20260506001502 73 162 0.0 7.0 0.00 0.00 0.00 59 1013.1
20260506000059 74 134 0.0 5.2 0.00 0.00 0.00 57 1012.9
20260505234627 74 163 0.0 7.0 0.00 0.00 0.00 57 1012.7
20260505233054 75 125 0.0 6.1 0.00 0.00 0.00 58 1012.8
20260505231551 76 153 0.0 4.3 0.00 0.00 0.00 56 1012.7
20260505230049 77 126 0.0 3.5 0.00 0.00 0.00 56 1012.7
20260505224547 77 163 0.0 7.0 0.00 0.00 0.00 56 1012.9
20260505223044 77 131 0.0 1.7 0.00 0.00 0.00 57 1012.8
20260505221541 77 180 0.0 0.9 0.00 0.00 0.00 58 1012.8
20260505220054 77 203 0.0 1.7 0.00 0.00 0.00 59 1012.9
20260505214538 75 155 0.0 1.7 0.00 0.00 0.00 59 1013.1
20260505213136 74 155 0.0 4.3 0.00 0.00 0.00 61 1013.3
20260505211529 73 122 0.0 3.5 0.00 0.00 0.00 61 1013.4
20260505210025 73 160 0.0 7.0 0.00 0.00 0.00 62 1013.4
20260505204522 72 145 0.0 4.3 0.00 0.00 0.00 62 1013.7
20260505203019 71 179 0.0 2.6 0.00 0.00 0.00 60 1013.7
20260505201522 71 139 0.0 0.9 0.00 0.00 0.00 64 1013.9
20260505200012 69 200 0.0 1.7 0.00 0.00 0.00 67 1014.1
20260505194524 68 144 0.0 4.3 0.00 0.00 0.00 65 1014.4
20260505193024 68 125 0.0 5.2 0.00 0.00 0.00 66 1014.6
20260505191504 67 206 0.0 4.3 0.00 0.00 0.00 68 1014.9
20260505190003 66 142 0.0 2.6 0.00 0.00 0.00 66 1014.9
20260505184611 66 144 0.0 0.9 0.00 0.00 0.00 68 1015.1
20260505183058 65 142 0.0 4.3 0.00 0.00 0.00 70 1015.5
20260505181559 64 131 0.0 0.0 0.00 0.00 0.00 70 1015.6
20260505174608 63 127 0.0 0.9 0.00 0.00 0.00 71 1015.8
20260505173048 62 165 0.0 0.0 0.00 0.00 0.00 75 1015.8
20260505171545 59 139 0.0 0.0 0.00 0.00 0.00 78 1016.0
20260505170057 58 142 0.0 0.0 0.00 0.00 0.00 79 1016.1
20260505164541 57 153 0.0 0.0 0.00 0.00 0.00 79 1016.2
20260505163040 57 134 0.0 0.0 0.00 0.00 0.00 79 1016.1
20260505161537 57 140 0.0 0.9 0.00 0.00 0.00 81 1016.2
20260505153038 56 141 0.0 0.0 0.00 0.00 0.00 84 1016.0
20260505151533 55 141 0.0 0.0 0.00 0.00 0.00 84 1015.8
20260505124518 53 129 0.0 0.0 0.00 0.00 0.00 87 1014.8
20260505123016 53 128 0.0 0.0 0.00 0.00 0.00 87 1014.8
20260505121516 54 127 0.0 0.0 0.00 0.00 0.00 86 1014.7
20260505120014 54 127 0.0 0.0 0.00 0.01 0.00 86 1014.8
20260505114512 54 127 0.0 0.0 0.00 0.01 0.00 87 1014.7
20260505113012 54 127 0.0 0.0 0.00 0.01 0.00 86 1014.7
20260505111510 54 127 0.0 0.0 0.00 0.01 0.00 86 1014.7
20260505101505 54 132 0.0 0.0 0.00 0.03 0.00 85 1014.7
20260505100004 55 125 0.0 3.5 0.00 0.03 0.00 84 1014.7
20260505094501 55 132 0.0 0.0 0.00 0.03 0.00 84 1014.7
20260505093059 55 126 0.0 0.0 0.00 0.03 0.00 84 1014.9
20260505091557 55 129 0.0 0.9 0.00 0.03 0.00 84 1015.0
20260505090059 55 129 0.0 0.9 0.00 0.03 0.00 84 1015.1
20260505084552 55 127 0.0 0.0 0.00 0.03 0.00 84 1014.8
20260505083101 55 133 0.0 1.7 0.00 0.03 0.00 83 1014.9
20260505081553 55 141 0.0 1.7 0.00 0.03 0.00 83 1015.1